www.pogodaiklimat.ru
ПОГОДА в Сепйнт-Инигосе
Время
и дата
12:53 19.05
13:53 19.05
14:53 19.05
15:53 19.05
16:53 19.05
17:53 19.05
18:53 19.05
19:53 19.05
20:53 19.05
21:53 19.05
22:53 19.05
23:53 19.05
00:53 20.05
01:45 20.05
01:53 20.05
02:53 20.05
03:34 20.05
03:42 20.05
03:53 20.05
04:23 20.05
04:53 20.05
05:53 20.05
06:07 20.05
06:53 20.05
07:53 20.05
08:19 20.05
08:50 20.05
08:53 20.05
09:03 20.05
09:53 20.05
10:53 20.05
11:53 20.05
12:53 20.05
13:53 20.05
14:28 20.05
14:53 20.05
15:53 20.05
16:53 20.05
17:03 20.05
17:53 20.05
18:53 20.05
19:53 20.05
20:53 20.05
21:53 20.05
22:53 20.05
23:49 20.05
23:53 20.05
00:30 21.05
Ветер
(напр.,м/с)
Видим. Явления Облачность Т
(С)
Тd
(С)
f
(%)
Тe
(С)
Тes
(С)
Комфортность P
(гПа)
Po
(гПа)
Тmin
(С)
Tmax
(С)
R
(мм)
R24
(мм)
S
(см)
СВ 2 16 км 10/10 750 м +21.7 +16.1 70 +25 +25 комфорт 1015.0 1014.4 +16.1 +22.2
штиль 0 16 км 10/10 1200 м +21.7 +15.6 68 +25 +25 комфорт 1014.9 1014.1
нст 2 16 км 10/10 1500 м +22.2 +16.7 71 +27 +27 душно 1014.4 1013.7
СЗ 2 16 км 10/10 1650 м +21.7 +16.7 73 +26 +26 душно 1014.5 1013.7
нст 2 16 км 10/10 1800 м +22.2 +16.1 68 +26 +26 душно 1014.2 1013.4
СВ 2 16 км 10/10 1800 м +21.7 +16.1 70 +25 +25 комфорт 1014.3 1013.4
СВ 2 16 км 10/10 1800 м +20.6 +17.2 81 +25 +25 комфорт 1014.4 1013.7 +20.6 +22.8
штиль 0 16 км 2/2 1800 м +18.3 +16.7 90 +19 +19 1015.1 1014.4
ЮВ 4 16 км 5/5 900 м +17.8 +16.1 90 +18 +18 1015.9 1015.1
ЮВ 3 16 км ясно +16.7 +15.6 93 +16 +16 1016.4 1015.8
штиль 0 16 км ясно +16.1 +15.0 93 +16 +16 1016.4 1015.8
штиль 0 16 км ясно +14.4 +14.4 100 +14 +14 1016.3 1015.4
штиль 0 16 км 2/2 540 м +13.9 +13.9 100 +13 +13 1016.3 1015.8 +13.9 +20.6
В 2 16 км 8/8 660 м +14.4 +13.9 97 +14 +14 1015.4
В 2 16 км 8/8 660 м +14.4 +13.9 97 +14 +14 1016.0 1015.4
штиль 0 16 км 10/10 690 м +14.4 +14.4 100 +14 +14 1015.7 1015.1
штиль 0 16 км 10/10 300 м +15.0 +14.4 96 +15 +15 1015.4
штиль 0 16 км 10/10 270 м +15.0 +14.4 96 +15 +15 1015.4
штиль 0 16 км 10/10 270 м +15.0 +14.4 96 +15 +15 1015.9 1015.1
штиль 0 16 км 10/10 270 м +15.0 +14.4 96 +15 +15 1015.1
штиль 0 16 км 10/10 720 м +15.0 +13.9 93 +15 +15 1016.1 1015.4
штиль 0 16 км 10/10 720 м +15.0 +13.9 93 +15 +15 1016.5 1015.8
В 2 16 км 10/10 720 м +15.6 +13.9 90 +15 +15 1016.1
В 2 16 км 10/10 360 м +15.6 +13.9 90 +15 +15 1017.8 1017.1 +14.4 +15.6
В 3 16 км 10/10 840 м +16.1 +13.9 87 +16 +16 1018.7 1018.1
нст 2 16 км 10/10 360 м +16.7 +13.9 84 +17 +17 1017.8
В 2 16 км 10/10 360 м +17.0 +14.0 82 +17 +17 1017.8
В 3 16 км 10/10 360 м +17.2 +14.4 84 +17 +17 1018.5 1017.8
штиль 0 16 км 10/10 390 м +17.2 +13.9 81 +17 +17 1017.8
штиль 0 16 км 10/10 810 м +18.3 +15.0 81 +19 +19 1018.1 1017.4
З 2 16 км 10/10 720 м +20.0 +16.1 78 +23 +23 комфорт 1018.1 1017.4
нст 3 16 км 10/10 690 м +21.1 +16.1 73 +24 +24 комфорт 1017.6 1016.8
СВ 3 16 км 10/10 720 м +21.7 +16.1 70 +25 +25 комфорт 1017.1 1016.4 +15.6 +22.2
штиль 0 16 км 10/10 750 м +22.8 +17.2 71 +28 +28 душно 1016.9 1016.1
В 3 16 км 5/5 780 м +22.8 +16.7 68 +27 +34 душно 1016.1
В 3 16 км 2/2 780 м +22.8 +16.7 68 +27 +38 душно 1016.6 1015.8
СВ 3 16 км ясно +23.3 +17.2 69 +29 +39 душно 1016.4 1015.8
В 3 4 км мгла ясно +23.3 +16.7 66 +28 +35 душно 1015.8 1015.1
СВ 3 16 км ясно +23.3 +16.1 64 +28 +31 душно 1015.1
В 2 16 км ясно +22.8 +16.1 66 +27 +31 душно 1015.4 1014.7
штиль 0 16 км ясно +21.7 +16.7 73 +26 +27 душно 1015.6 1015.1 +21.1 +23.3
штиль 0 16 км ясно +18.9 +17.2 90 +20 +20 1015.9 1015.1
штиль 0 16 км ясно +17.2 +16.7 97 +17 +17 1016.4 1015.8
ЮВ 3 16 км ясно +17.8 +17.2 96 +18 +18 1016.7 1016.1
ЮВ 3 16 км ясно +17.8 +17.2 96 +18 +18 1016.4 1015.8
Ю 3 16 км 5/5 180 м +17.0 +17.0 100 +17 +17 1015.4
Ю 3 16 км 8/8 180 м +17.2 +17.2 100 +17 +17 1016.1 1015.4
Ю 3 16 км 10/10 120 м +16.7 +16.7 100 +16 +16 1015.4
Местоположение метеостанции Naval Electronic Systems Engineering Activity: широта 38.1500 долгота -76.4200 высота над уровнем моря 6 м.
В архиве по умолчанию представлена погода в Сепйнт-Инигосе за последние 1-2 суток. Обновление информации о фактической погоде в базе происходит ежечасно! Архивные данные за месяц целиком и за предыдущие месяцы Вы можете получить, выбрав интересующий диапазон дат из раскрывающегося списка и нажав кнопку "Ввод!".
Внимание! Архив погоды МЕТАР в базе сайта по станциям, не включенным в климатический монитор, хранится не более 60 дней. Нет смысла пытаться выбрать более раннюю дату.
*Определитесь, кто Вы:
Внимание! Время в таблицах - местное (без учета летнего времени). Для получения всемирного времени необходимо вычесть поправку, которая равна -5 ч.
Смотрите также архив погоды в соседних городах и на ближайших метеорологических станциях:
Партнеры нашего сайта:      
Пояснения к столбцам:
  • Ветер - указаны скорость ветра в м/с - средняя за 10 мин, порывы в срок и между сроками (в фигурных скобках) и направление, откуда дует ветер: С - северный,
  • СВ - северо-восточный, В - восточный, ЮВ - юго-восточный, Ю - южный, ЮЗ - юго-западный, З - западный, СЗ - северо-западный.
  • Видимость - горизонтальная дальность видимости в метрах или километрах. При видимости от 1 до 10 км при отсутствии осадков обычно наблюдается дымка, при ухудшении видимости до 1 км и менее - туман. В сухую погоду видимость может ухудшаться дымом, пылью или мглою.
  • Явления - указаны атмосферные явления, наблюдавшиеся в срок или в последний час перед сроком; фигурными скобками обозначены явления, наблюдавшиеся между сроками (за 1-3 часа до срока); квадратными скобками обозначены град или гололедные отложения с указанием их диаметра в мм.
  • Облачность - указаны через наклонную черту общая и нижняя облачность в баллах и высота нижней границы облаков в метрах; квадратными скобками обозначены формы облаков: Ci - перистые, Cs - перисто-слоистые, Cc - перисто-кучевые, Ac - высококучевые, As - высокослоистые, Sc - слоисто-кучевые, Ns - слоисто-дождевые, Cu - кучевые, Cb - кучево-дождевые. Подробнее классификацию облаков см. в Атласе облаков (PDF).
  • T - Температура воздуха - температура, измеренная на высоте 2 м над землей.
  • Td - Температура точки росы - температура, при понижении до которой содержащийся в воздухе водяной пар достигнет насыщения.
  • f - Относительная влажность воздуха - влажноcть воздуха, измеренная на высоте 2 м над землей.
  • Te - Эффективная температура - температура, которую ощущает одетый по сезону человек в тени. Характеристика душности погоды. При расчете учитывается влияние влажности воздуха и скорости ветра на теплоощущения человека.
  • Tes - Эффективная температура на солнце - температура, которую ощущает человек, с поправкой на солнечный нагрев. Характеристика знойности погоды. Зависит от высоты солнца над горизонтом, облачности и скорости ветра. Ночью, в пасмурную погоду, а также при ветре 12 м/с и более поправка равна нулю.
  • P - Атмосферное давление - приведенное к уровню моря атмосферное давление.
  • Po - Атмосферное давление - измеренное на уровне метеостанции атмосферное давление.
  • Tmin - Минимальная температура - минимум температуры воздуха на высоте 2 м над землей.
  • Tmax - Максимальная температура - максимум температуры воздуха на высоте 2 м над землей.
  • R - Количество осадков - Количество выпавших осадков за период времени, мм. При наведении курсора мыши на число - период времени, за который выпало указанное количество осадков.
  • R24 - Количество осадков - Количество выпавших осадков за 24 часа, мм.
  • S - Снежный покров - Высота снежного покрова, см. При наведении курсора мыши на число - состояние снежного покрова и степень покрытия местности в баллах.